Regional Weather Roundup
Issued by NWS Raleigh/Durham, NC

Home | Current Version | Previous Version | Text Only | Print | Product List | Glossary On
Versions: 1 2 3 4 5 6 7 8 9 10 11 12 13 14 15 16 17 18 19 20 21 22 23 24 25 26 27 28 29 30 31 32 33 34 35 36 37 38 39 40 41 42 43 44 45 46 47 48 49 50
000
ASUS42 KRAH 191610
RWRRAH
NORTH CAROLINA WEATHER ROUNDUP
NATIONAL WEATHER SERVICE RALEIGH NC
1100 AM EST FRI DEC 19 2014

NOTE: "FAIR" INDICATES FEW OR NO CLOUDS BELOW 12,000 FEET WITH NO
SIGNIFICANT WEATHER AND/OR OBSTRUCTIONS TO VISIBILITY.

NCZ001-053-055-056-065-067-191700-
WESTERN NORTH CAROLINA

CITY           SKY/WX    TMP DP  RH WIND       PRES   REMARKS
ASHEVILLE      MOSUNNY   45  25  45 N6        30.16F
JEFFERSON      CLOUDY    36  15  42 W3        30.11S
MORGANTON      SUNNY     48  25  40 CALM      30.20S
HICKORY        SUNNY     49  26  41 NE5       30.15F
RUTHERFORDTON  MOSUNNY   50  30  46 W5        30.17F
MOUNT AIRY     SUNNY     46  18  32 W3        30.18F
BOONE          SUNNY     37  15  39 NW12G17   30.11F WCI  30
$$

NCZ021-022-025-041-071-084-088-191700-
CENTRAL NORTH CAROLINA

CITY           SKY/WX    TMP DP  RH WIND       PRES   REMARKS
CHARLOTTE      MOSUNNY   51  22  31 N5        30.18S
GREENSBORO     MOSUNNY   47  17  30 NW9       30.15F
WINSTON-SALEM  SUNNY     47  16  29 NW10      30.17F
RALEIGH-DURHAM MOSUNNY   47  22  37 N8        30.18F
FORT BRAGG     SUNNY     51  22  33 N7        30.17F
FAYETTEVILLE   SUNNY     51  23  33 CALM      30.18F
BURLINGTON     SUNNY     49  17  28 W6        30.16F
LAURINBURG     SUNNY     51  25  36 NE7       30.19F
$$

NCZ011-015-027-028-043-044-047-080-103-191700-
NORTHEASTERN NORTH CAROLINA

CITY           SKY/WX    TMP DP  RH WIND       PRES   REMARKS
ROCKY MT-WILSO SUNNY     43  28  55 NW7       30.19F
GREENVILLE     SUNNY     43  32  65 NW3       30.19F
WASHINGTON     SUNNY     44  32  63 N3        30.17F
ELIZABETH CITY SUNNY     47  30  51 N6        30.18F
MANTEO         SUNNY     44  32  63 N7        30.17R
CAPE HATTERAS  SUNNY     48  37  65 VRB7      30.15S
$$

NCZ078-087-090-091-093-098-101-191700-
SOUTHEASTERN NORTH CAROLINA

CITY           SKY/WX    TMP DP  RH WIND       PRES   REMARKS
LUMBERTON      SUNNY     53  25  33 N10       30.17F
GOLDSBORO      SUNNY     47  30  51 N7        30.17F
KINSTON        SUNNY     48  30  49 N8        30.19F
KENANSVILLE    SUNNY     48  26  43 N6        30.19S
NEW BERN       SUNNY     50  29  44 N7        30.18F
CHERRY POINT   SUNNY     50  28  42 N8        30.17F
BEAUFORT       SUNNY     50  28  42 N13       30.16F
JACKSONVILLE   SUNNY     50  27  40 N9        30.16F
WILMINGTON     SUNNY     54  26  34 NW5       30.17F
$$



USA.gov is the U.S. government's official web portal to all federal, state and local government web resources and services.